Zurück zum Katalog

WREN-1

AktivAmateurfunkSSO
NORAD 60478·PAYLOAD·🇭🇺 Hungary

Gestartet Aug 16, 2024 von Vandenberg Space Force Base

Loading…

Nächste Überflüge (nächste 24 Stunden)

TLE

AktuellSource: Space-Track

Epoche: Sep 14, 2026, 11:39 UTC

1 60478U 24149L   26257.48556828  .00018179  00000-0  38852-3 0  9998
2 60478  97.3717 342.7296 0002678 304.7800  55.3196 15.44889015116090

Verfolge WREN-1 in Echtzeit mit AllMySat

Download on the App Store